| time (UTC) | temp F | wind direction | speed MPH | gust MPH | rain 1hr in | rain 24hr in | rain mn in | humidity % | barometer mb |
| 20260506211524 | 69 | 237 | 2.0 | 7.0 | 0.00 | 0.13 | 0.13 | 86 | 1007.7 |
| 20260506211239 | 69 | 63 | 3.0 | 13.0 | 0.00 | 0.13 | 0.13 | 85 | 1007.6 |
| 20260506210513 | 69 | 206 | 3.0 | 13.0 | 0.00 | 0.13 | 0.13 | 85 | 1007.9 |
| 20260506210007 | 69 | 213 | 3.0 | 13.0 | 0.00 | 0.13 | 0.13 | 85 | 1007.8 |
| 20260506205502 | 70 | 234 | 3.0 | 13.0 | 0.00 | 0.13 | 0.13 | 85 | 1007.6 |
| 20260506204954 | 70 | 46 | 3.0 | 13.0 | 0.00 | 0.13 | 0.13 | 85 | 1007.7 |
| 20260506204449 | 70 | 327 | 4.0 | 13.0 | 0.00 | 0.13 | 0.13 | 85 | 1007.6 |
| 20260506203943 | 69 | 283 | 4.0 | 12.0 | 0.00 | 0.13 | 0.13 | 85 | 1007.5 |
| 20260506203438 | 69 | 245 | 3.0 | 9.0 | 0.00 | 0.13 | 0.13 | 86 | 1007.6 |
| 20260506202931 | 68 | 163 | 3.0 | 9.0 | 0.00 | 0.13 | 0.13 | 86 | 1007.7 |
| 20260506202429 | 68 | 269 | 4.0 | 16.0 | 0.00 | 0.13 | 0.13 | 86 | 1007.7 |
| 20260506201919 | 68 | 135 | 4.0 | 16.0 | 0.00 | 0.13 | 0.13 | 85 | 1007.6 |
| 20260506201424 | 68 | 302 | 3.0 | 10.0 | 0.00 | 0.13 | 0.13 | 86 | 1007.5 |
| 20260506200919 | 68 | 284 | 4.0 | 11.0 | 0.00 | 0.13 | 0.13 | 85 | 1007.6 |
| 20260506200424 | 68 | 4 | 4.0 | 11.0 | 0.00 | 0.13 | 0.13 | 85 | 1007.5 |
| 20260506195918 | 67 | 262 | 3.0 | 12.0 | 0.00 | 0.13 | 0.13 | 84 | 1007.6 |
| 20260506195419 | 67 | 117 | 3.0 | 12.0 | 0.00 | 0.13 | 0.13 | 84 | 1007.5 |
| 20260506194919 | 67 | 296 | 4.0 | 14.0 | 0.00 | 0.13 | 0.13 | 85 | 1007.6 |
| 20260506194419 | 66 | 351 | 4.0 | 14.0 | 0.00 | 0.13 | 0.13 | 85 | 1007.7 |
| 20260506193917 | 66 | 281 | 4.0 | 13.0 | 0.00 | 0.13 | 0.13 | 85 | 1007.8 |
| 20260506193416 | 65 | 165 | 3.0 | 9.0 | 0.00 | 0.13 | 0.13 | 86 | 1007.9 |
| 20260506192913 | 65 | 74 | 3.0 | 9.0 | 0.00 | 0.13 | 0.13 | 86 | 1007.9 |
| 20260506192411 | 64 | 1 | 3.0 | 10.0 | 0.00 | 0.13 | 0.13 | 86 | 1007.9 |
| 20260506192135 | 64 | 135 | 3.0 | 11.0 | 0.00 | 0.13 | 0.13 | 86 | 1008.0 |
| 20260506191451 | 63 | 140 | 2.0 | 11.0 | 0.00 | 0.13 | 0.13 | 87 | 1008.0 |
| 20260506190407 | 63 | 296 | 2.0 | 11.0 | 0.00 | 0.13 | 0.13 | 86 | 1008.2 |
| 20260506185905 | 63 | 223 | 2.0 | 8.0 | 0.00 | 0.13 | 0.13 | 86 | 1008.1 |
| 20260506185405 | 62 | 89 | 3.0 | 9.0 | 0.00 | 0.13 | 0.13 | 86 | 1008.2 |
| 20260506185123 | 62 | 1 | 3.0 | 9.0 | 0.00 | 0.13 | 0.13 | 86 | 1008.3 |
| 20260506184405 | 62 | 314 | 3.0 | 9.0 | 0.00 | 0.13 | 0.13 | 86 | 1008.4 |
| 20260506183905 | 62 | 266 | 3.0 | 10.0 | 0.00 | 0.13 | 0.13 | 86 | 1008.3 |
| 20260506183404 | 62 | 352 | 3.0 | 10.0 | 0.00 | 0.13 | 0.13 | 87 | 1008.4 |
| 20260506182906 | 62 | 59 | 3.0 | 11.0 | 0.00 | 0.13 | 0.13 | 87 | 1008.3 |
| 20260506182406 | 62 | 139 | 4.0 | 11.0 | 0.00 | 0.13 | 0.13 | 87 | 1008.4 |
| 20260506181905 | 62 | 274 | 4.0 | 11.0 | 0.00 | 0.13 | 0.13 | 87 | 1008.4 |
| 20260506181404 | 62 | 295 | 4.0 | 11.0 | 0.00 | 0.13 | 0.13 | 87 | 1008.5 |
| 20260506181124 | 62 | 248 | 3.0 | 11.0 | 0.00 | 0.13 | 0.13 | 87 | 1008.5 |
| 20260506180405 | 61 | 231 | 3.0 | 11.0 | 0.00 | 0.13 | 0.13 | 87 | 1008.6 |
| 20260506175909 | 61 | 276 | 3.0 | 11.0 | 0.00 | 0.13 | 0.13 | 87 | 1008.6 |
| 20260506175405 | 61 | 306 | 3.0 | 11.0 | 0.00 | 0.13 | 0.13 | 87 | 1008.5 |
| 20260506174909 | 61 | 253 | 3.0 | 11.0 | 0.00 | 0.13 | 0.13 | 88 | 1008.5 |
| 20260506174628 | 61 | 286 | 3.0 | 11.0 | 0.00 | 0.13 | 0.13 | 88 | 1008.5 |
| 20260506174132 | 61 | 143 | 3.0 | 11.0 | 0.00 | 0.13 | 0.13 | 88 | 1008.6 |
| 20260506173622 | 61 | 241 | 3.0 | 13.0 | 0.00 | 0.13 | 0.13 | 88 | 1008.6 |
| 20260506172901 | 61 | 314 | 3.0 | 13.0 | 0.00 | 0.13 | 0.13 | 88 | 1008.7 |
| 20260506172358 | 61 | 113 | 3.0 | 10.0 | 0.00 | 0.13 | 0.13 | 88 | 1008.7 |
| 20260506172115 | 61 | 228 | 3.0 | 18.0 | 0.00 | 0.13 | 0.13 | 88 | 1008.8 |
| 20260506171358 | 61 | 218 | 4.0 | 18.0 | 0.00 | 0.13 | 0.13 | 88 | 1008.7 |
| 20260506170858 | 61 | 284 | 4.0 | 13.0 | 0.00 | 0.13 | 0.13 | 88 | 1008.8 |
| 20260506170358 | 61 | 223 | 3.0 | 13.0 | 0.00 | 0.13 | 0.13 | 88 | 1008.7 |
| 20260506170122 | 61 | 28 | 4.0 | 14.0 | 0.01 | 0.13 | 0.13 | 89 | 1008.8 |
| 20260506165401 | 61 | 223 | 4.0 | 14.0 | 0.01 | 0.13 | 0.13 | 89 | 1008.9 |
| 20260506164852 | 61 | 245 | 3.0 | 9.0 | 0.02 | 0.13 | 0.13 | 89 | 1008.9 |
| 20260506164351 | 61 | 152 | 3.0 | 9.0 | 0.03 | 0.13 | 0.13 | 89 | 1008.8 |
| 20260506163840 | 61 | 269 | 3.0 | 13.0 | 0.04 | 0.13 | 0.13 | 89 | 1008.9 |
| 20260506163340 | 61 | 232 | 3.0 | 13.0 | 0.04 | 0.13 | 0.13 | 89 | 1008.9 |
| 20260506162828 | 61 | 288 | 3.0 | 9.0 | 0.04 | 0.13 | 0.13 | 89 | 1009.0 |
| 20260506162327 | 61 | 286 | 4.0 | 12.0 | 0.05 | 0.13 | 0.13 | 89 | 1009.1 |
| 20260506161816 | 61 | 20 | 3.0 | 12.0 | 0.05 | 0.13 | 0.13 | 89 | 1009.2 |
| 20260506161310 | 61 | 129 | 3.0 | 8.0 | 0.05 | 0.13 | 0.13 | 90 | 1009.2 |
| 20260506160803 | 61 | 155 | 3.0 | 10.0 | 0.05 | 0.13 | 0.13 | 90 | 1009.2 |
| 20260506160525 | 61 | 262 | 2.0 | 9.0 | 0.06 | 0.13 | 0.13 | 90 | 1009.1 |
| 20260506155751 | 61 | 46 | 2.0 | 7.0 | 0.05 | 0.12 | 0.12 | 90 | 1009.1 |
| 20260506155246 | 61 | 223 | 2.0 | 7.0 | 0.06 | 0.12 | 0.12 | 90 | 1009.3 |
| 20260506154740 | 61 | 202 | 3.0 | 8.0 | 0.06 | 0.11 | 0.11 | 90 | 1009.7 |
| 20260506154451 | 61 | 219 | 3.0 | 8.0 | 0.06 | 0.10 | 0.10 | 90 | 1009.8 |
| 20260506153728 | 61 | 269 | 3.0 | 12.0 | 0.06 | 0.09 | 0.09 | 90 | 1009.8 |
| 20260506153226 | 61 | 241 | 2.0 | 12.0 | 0.06 | 0.09 | 0.09 | 90 | 1010.0 |
| 20260506152934 | 61 | 296 | 2.0 | 12.0 | 0.07 | 0.09 | 0.09 | 91 | 1010.2 |
| 20260506152219 | 61 | 145 | 2.0 | 7.0 | 0.06 | 0.08 | 0.08 | 91 | 1010.0 |
| 20260506151714 | 61 | 262 | 2.0 | 6.0 | 0.06 | 0.08 | 0.08 | 91 | 1010.2 |
| 20260506151214 | 61 | 234 | 2.0 | 5.0 | 0.07 | 0.08 | 0.08 | 91 | 1010.0 |
| 20260506150714 | 61 | 20 | 2.0 | 5.0 | 0.07 | 0.08 | 0.08 | 91 | 1009.9 |
| 20260506150212 | 61 | 218 | 3.0 | 14.0 | 0.07 | 0.07 | 0.07 | 91 | 1009.8 |
| 20260506145710 | 61 | 51 | 3.0 | 14.0 | 0.07 | 0.07 | 0.07 | 91 | 1009.8 |
| 20260506145208 | 62 | 145 | 3.0 | 11.0 | 0.05 | 0.05 | 0.06 | 90 | 1009.7 |
| 20260506144706 | 62 | 190 | 3.0 | 11.0 | 0.05 | 0.05 | 0.05 | 90 | 1009.8 |
| 20260506144206 | 62 | 257 | 3.0 | 9.0 | 0.04 | 0.04 | 0.04 | 90 | 1009.7 |
| 20260506144152 | 62 | 321 | 3.0 | 9.0 | 0.03 | 0.03 | 0.03 | 90 | 1009.8 |
| 20260506143206 | 62 | 1 | 3.0 | 9.0 | 0.03 | 0.03 | 0.03 | 90 | 1009.9 |
| 20260506142710 | 63 | 250 | 3.0 | 9.0 | 0.02 | 0.02 | 0.02 | 90 | 1010.0 |
| 20260506142204 | 63 | 269 | 3.0 | 9.0 | 0.02 | 0.02 | 0.02 | 89 | 1010.0 |
| 20260506141702 | 63 | 193 | 3.0 | 10.0 | 0.02 | 0.02 | 0.02 | 89 | 1010.0 |
| 20260506141201 | 63 | 269 | 2.0 | 10.0 | 0.01 | 0.01 | 0.01 | 89 | 1009.9 |
| 20260506140702 | 63 | 135 | 2.0 | 9.0 | 0.01 | 0.01 | 0.01 | 88 | 1009.9 |
| 20260506140202 | 64 | 321 | 3.0 | 11.0 | 0.00 | 0.00 | 0.00 | 87 | 1010.0 |
| 20260506135701 | 64 | 269 | 3.0 | 13.0 | 0.00 | 0.00 | 0.00 | 86 | 1010.0 |
| 20260506135201 | 64 | 253 | 3.0 | 13.0 | 0.00 | 0.00 | 0.00 | 86 | 1010.0 |
| 20260506134930 | 64 | 235 | 3.0 | 13.0 | 0.00 | 0.00 | 0.00 | 85 | 1009.9 |
| 20260506134201 | 65 | 310 | 4.0 | 13.0 | 0.00 | 0.00 | 0.00 | 85 | 1009.9 |
| 20260506133924 | 65 | 74 | 3.0 | 13.0 | 0.00 | 0.00 | 0.00 | 85 | 1009.8 |
| 20260506133202 | 65 | 89 | 3.0 | 15.0 | 0.00 | 0.00 | 0.00 | 86 | 1009.7 |
| 20260506132702 | 64 | 277 | 3.0 | 15.0 | 0.00 | 0.00 | 0.00 | 86 | 1009.7 |
| 20260506132159 | 64 | 269 | 4.0 | 15.0 | 0.00 | 0.00 | 0.00 | 86 | 1009.8 |
| 20260506131653 | 64 | 68 | 4.0 | 15.0 | 0.00 | 0.00 | 0.00 | 86 | 1009.7 |
| 20260506131146 | 64 | 269 | 4.0 | 19.0 | 0.00 | 0.00 | 0.00 | 86 | 1009.9 |
| 20260506130645 | 64 | 148 | 4.0 | 19.0 | 0.00 | 0.00 | 0.00 | 85 | 1009.8 |
| 20260506130134 | 64 | 235 | 4.0 | 12.0 | 0.00 | 0.00 | 0.00 | 85 | 1009.9 |
| 20260506125629 | 64 | 148 | 3.0 | 12.0 | 0.00 | 0.00 | 0.00 | 85 | 1010.0 |
| 20260506125344 | 64 | 230 | 3.0 | 14.0 | 0.00 | 0.00 | 0.00 | 84 | 1010.0 |
| 20260506124616 | 64 | 1 | 4.0 | 14.0 | 0.00 | 0.00 | 0.00 | 84 | 1010.0 |
| 20260506124332 | 65 | 314 | 4.0 | 14.0 | 0.00 | 0.00 | 0.00 | 84 | 1010.0 |
| 20260506123605 | 65 | 255 | 3.0 | 11.0 | 0.00 | 0.00 | 0.00 | 85 | 1010.2 |
| 20260506123058 | 65 | 303 | 4.0 | 11.0 | 0.00 | 0.00 | 0.00 | 84 | 1010.0 |
| 20260506122551 | 65 | 11 | 4.0 | 16.0 | 0.00 | 0.00 | 0.00 | 84 | 1010.0 |
| 20260506122316 | 65 | 210 | 5.0 | 16.0 | 0.00 | 0.00 | 0.00 | 84 | 1010.0 |
| 20260506121539 | 65 | 264 | 4.0 | 13.0 | 0.00 | 0.00 | 0.00 | 84 | 1010.0 |
| 20260506121033 | 65 | 260 | 4.0 | 12.0 | 0.00 | 0.00 | 0.00 | 85 | 1009.9 |
| 20260506120526 | 65 | 121 | 5.0 | 17.0 | 0.00 | 0.00 | 0.00 | 85 | 1009.8 |
| 20260506120021 | 65 | 264 | 4.0 | 17.0 | 0.00 | 0.00 | 0.00 | 84 | 1009.8 |
| 20260506115515 | 65 | 286 | 4.0 | 11.0 | 0.00 | 0.00 | 0.00 | 85 | 1009.7 |
| 20260506115227 | 65 | 262 | 4.0 | 11.0 | 0.00 | 0.00 | 0.00 | 84 | 1009.7 |
| 20260506114503 | 65 | 46 | 4.0 | 11.0 | 0.00 | 0.00 | 0.00 | 84 | 1009.7 |
| 20260506113957 | 65 | 89 | 4.0 | 13.0 | 0.00 | 0.00 | 0.00 | 85 | 1009.6 |
| 20260506113451 | 64 | 260 | 4.0 | 14.0 | 0.00 | 0.00 | 0.00 | 84 | 1009.6 |
| 20260506113206 | 64 | 227 | 4.0 | 14.0 | 0.00 | 0.00 | 0.00 | 85 | 1009.6 |
| 20260506112438 | 64 | 290 | 5.0 | 18.0 | 0.00 | 0.00 | 0.00 | 84 | 1009.4 |
| 20260506111933 | 64 | 219 | 4.0 | 18.0 | 0.00 | 0.00 | 0.00 | 84 | 1009.4 |
| 20260506111427 | 64 | 257 | 4.0 | 15.0 | 0.00 | 0.00 | 0.00 | 85 | 1009.4 |
| 20260506110921 | 64 | 230 | 3.0 | 11.0 | 0.00 | 0.00 | 0.00 | 85 | 1009.5 |
| 20260506110633 | 64 | 283 | 3.0 | 11.0 | 0.00 | 0.00 | 0.00 | 85 | 1009.5 |
| 20260506105909 | 64 | 248 | 4.0 | 11.0 | 0.00 | 0.00 | 0.00 | 85 | 1009.4 |
| 20260506105402 | 64 | 250 | 4.0 | 14.0 | 0.00 | 0.00 | 0.00 | 85 | 1009.4 |
| 20260506104857 | 64 | 161 | 4.0 | 14.0 | 0.00 | 0.00 | 0.00 | 85 | 1009.3 |
| 20260506104351 | 64 | 234 | 4.0 | 13.0 | 0.00 | 0.00 | 0.00 | 85 | 1009.3 |
| 20260506104338 | 64 | 252 | 3.0 | 13.0 | 0.00 | 0.00 | 0.00 | 85 | 1009.3 |
| 20260506103349 | 64 | 244 | 3.0 | 13.0 | 0.00 | 0.00 | 0.00 | 85 | 1009.3 |
| 20260506103112 | 64 | 220 | 3.0 | 13.0 | 0.00 | 0.00 | 0.00 | 85 | 1009.3 |
| 20260506102610 | 64 | 250 | 3.0 | 10.0 | 0.00 | 0.00 | 0.00 | 85 | 1009.3 |
| 20260506101848 | 64 | 223 | 3.0 | 9.0 | 0.00 | 0.00 | 0.00 | 85 | 1009.3 |
| 20260506101349 | 64 | 206 | 3.0 | 9.0 | 0.00 | 0.00 | 0.00 | 85 | 1009.3 |
| 20260506100849 | 64 | 272 | 3.0 | 10.0 | 0.00 | 0.00 | 0.00 | 85 | 1009.2 |
| 20260506100349 | 64 | 206 | 3.0 | 18.0 | 0.00 | 0.00 | 0.00 | 85 | 1009.3 |
| 20260506095850 | 64 | 338 | 3.0 | 18.0 | 0.00 | 0.00 | 0.00 | 85 | 1009.3 |
| 20260506095350 | 64 | 234 | 3.0 | 18.0 | 0.00 | 0.00 | 0.00 | 84 | 1009.3 |
| 20260506094848 | 64 | 257 | 4.0 | 18.0 | 0.00 | 0.00 | 0.00 | 84 | 1009.2 |
| 20260506094612 | 64 | 274 | 4.0 | 11.0 | 0.00 | 0.00 | 0.00 | 84 | 1009.1 |
| 20260506093847 | 64 | 331 | 4.0 | 11.0 | 0.00 | 0.00 | 0.00 | 84 | 1009.3 |
| 20260506093347 | 64 | 216 | 4.0 | 14.0 | 0.00 | 0.00 | 0.00 | 84 | 1009.3 |
| 20260506093105 | 65 | 213 | 3.0 | 16.0 | 0.00 | 0.00 | 0.00 | 84 | 1009.4 |
| 20260506092344 | 65 | 255 | 3.0 | 16.0 | 0.00 | 0.00 | 0.00 | 83 | 1009.4 |
| 20260506091844 | 65 | 178 | 3.0 | 11.0 | 0.00 | 0.00 | 0.00 | 83 | 1009.4 |
| 20260506091345 | 65 | 241 | 3.0 | 13.0 | 0.00 | 0.00 | 0.00 | 83 | 1009.4 |
| 20260506090845 | 65 | 283 | 3.0 | 13.0 | 0.00 | 0.00 | 0.00 | 83 | 1009.4 |
| 20260506090345 | 65 | 318 | 4.0 | 12.0 | 0.00 | 0.00 | 0.00 | 83 | 1009.4 |
| 20260506085845 | 65 | 283 | 4.0 | 14.0 | 0.00 | 0.00 | 0.00 | 82 | 1009.5 |
| 20260506085345 | 65 | 197 | 3.0 | 14.0 | 0.00 | 0.00 | 0.00 | 82 | 1009.4 |
| 20260506084844 | 66 | 241 | 3.0 | 10.0 | 0.00 | 0.00 | 0.00 | 82 | 1009.4 |
| 20260506084343 | 66 | 314 | 3.0 | 10.0 | 0.00 | 0.00 | 0.00 | 82 | 1009.4 |
| 20260506083838 | 66 | 15 | 3.0 | 10.0 | 0.00 | 0.00 | 0.00 | 82 | 1009.4 |
| 20260506083332 | 66 | 218 | 3.0 | 10.0 | 0.00 | 0.00 | 0.00 | 82 | 1009.4 |
| 20260506082826 | 66 | 284 | 4.0 | 14.0 | 0.00 | 0.00 | 0.00 | 82 | 1009.3 |
| 20260506082320 | 66 | 150 | 4.0 | 14.0 | 0.00 | 0.00 | 0.00 | 82 | 1009.3 |
| 20260506082036 | 66 | 165 | 5.0 | 15.0 | 0.00 | 0.00 | 0.00 | 82 | 1009.4 |
| 20260506081308 | 66 | 223 | 5.0 | 17.0 | 0.00 | 0.00 | 0.00 | 82 | 1009.4 |
| 20260506080802 | 66 | 310 | 5.0 | 17.0 | 0.00 | 0.00 | 0.00 | 82 | 1009.4 |
| 20260506080256 | 66 | 253 | 5.0 | 14.0 | 0.00 | 0.00 | 0.00 | 82 | 1009.5 |
| 20260506073220 | 66 | 210 | 4.0 | 18.0 | 0.00 | 0.00 | 0.00 | 82 | 1009.7 |
| 20260506073149 | 66 | 178 | 4.0 | 13.0 | 0.00 | 0.00 | 0.00 | 82 | 1009.7 |
| 20260506072208 | 66 | 223 | 4.0 | 15.0 | 0.00 | 0.00 | 0.00 | 82 | 1009.7 |
| 20260506071702 | 66 | 244 | 3.0 | 15.0 | 0.00 | 0.00 | 0.00 | 82 | 1009.8 |
| 20260506071156 | 66 | 199 | 4.0 | 15.0 | 0.00 | 0.00 | 0.00 | 82 | 1009.7 |
| 20260506070650 | 66 | 164 | 4.0 | 15.0 | 0.00 | 0.00 | 0.00 | 82 | 1009.7 |
| 20260506070144 | 66 | 286 | 4.0 | 13.0 | 0.00 | 0.00 | 0.00 | 82 | 1009.8 |
| 20260506062326 | 66 | 25 | 3.0 | 9.0 | 0.00 | 0.00 | 0.00 | 80 | 1010.3 |
| 20260506061606 | 67 | 35 | 3.0 | 7.0 | 0.00 | 0.00 | 0.00 | 79 | 1010.3 |
| 20260506061106 | 67 | 231 | 2.0 | 12.0 | 0.00 | 0.00 | 0.00 | 79 | 1010.3 |
| 20260506060606 | 67 | 206 | 3.0 | 12.0 | 0.00 | 0.00 | 0.00 | 79 | 1010.3 |
| 20260506060333 | 67 | 223 | 3.0 | 8.0 | 0.00 | 0.00 | 0.00 | 79 | 1010.4 |
| 20260506051058 | 67 | 214 | 3.0 | 10.0 | 0.00 | 0.00 | 0.00 | 77 | 1010.6 |
| 20260506050558 | 67 | 245 | 3.0 | 10.0 | 0.00 | 0.00 | 0.00 | 77 | 1010.7 |
| 20260506050533 | 67 | 283 | 2.0 | 9.0 | 0.00 | 0.00 | 0.00 | 77 | 1010.7 |
| 20260506045056 | 67 | 314 | 2.0 | 7.0 | 0.00 | 0.00 | 0.00 | 77 | 1010.7 |
| 20260506044556 | 67 | 218 | 2.0 | 8.0 | 0.00 | 0.00 | 0.00 | 77 | 1010.7 |
| 20260506044541 | 67 | 135 | 3.0 | 9.0 | 0.00 | 0.00 | 0.00 | 77 | 1010.7 |
| 20260506043555 | 67 | 269 | 3.0 | 9.0 | 0.00 | 0.00 | 0.00 | 76 | 1010.7 |
| 20260506043056 | 67 | 278 | 3.0 | 8.0 | 0.00 | 0.00 | 0.00 | 76 | 1010.7 |
| 20260506042556 | 67 | 262 | 3.0 | 8.0 | 0.00 | 0.00 | 0.00 | 76 | 1010.7 |
| 20260506042056 | 67 | 269 | 2.0 | 8.0 | 0.00 | 0.00 | 0.00 | 76 | 1010.8 |
| 20260506041555 | 67 | 297 | 2.0 | 8.0 | 0.00 | 0.00 | 0.00 | 76 | 1010.7 |
| 20260506041053 | 67 | 286 | 2.0 | 8.0 | 0.00 | 0.00 | 0.00 | 76 | 1010.8 |
| 20260506040811 | 67 | 284 | 2.0 | 8.0 | 0.00 | 0.00 | 0.00 | 76 | 1010.8 |
| 20260506040053 | 68 | 156 | 2.0 | 8.0 | 0.00 | 0.00 | 0.00 | 76 | 1010.8 |
| 20260506035553 | 68 | 276 | 2.0 | 8.0 | 0.00 | 0.00 | 0.00 | 76 | 1010.7 |
| 20260506035053 | 68 | 250 | 3.0 | 10.0 | 0.00 | 0.00 | 0.00 | 76 | 1010.7 |
| 20260506034552 | 68 | 258 | 2.0 | 10.0 | 0.00 | 0.00 | 0.00 | 75 | 1010.7 |
| 20260506034052 | 68 | 89 | 2.0 | 8.0 | 0.00 | 0.00 | 0.00 | 75 | 1010.6 |
| 20260506033552 | 68 | 269 | 3.0 | 8.0 | 0.00 | 0.00 | 0.00 | 75 | 1010.6 |
| 20260506033137 | 68 | 257 | 2.0 | 10.0 | 0.00 | 0.00 | 0.00 | 75 | 1010.6 |
| 20260506032048 | 68 | 248 | 2.0 | 12.0 | 0.00 | 0.00 | 0.00 | 75 | 1010.5 |
| 20260506031548 | 68 | 269 | 2.0 | 12.0 | 0.00 | 0.00 | 0.00 | 75 | 1010.6 |
| 20260506031530 | 68 | 178 | 2.0 | 9.0 | 0.00 | 0.00 | 0.00 | 75 | 1010.6 |
| 20260506030548 | 68 | 211 | 3.0 | 9.0 | 0.00 | 0.00 | 0.00 | 75 | 1010.6 |
| 20260506030529 | 68 | 108 | 3.0 | 10.0 | 0.00 | 0.00 | 0.00 | 75 | 1010.6 |
| 20260506025801 | 68 | 223 | 2.0 | 12.0 | 0.00 | 0.00 | 0.00 | 75 | 1010.6 |
| 20260506025035 | 68 | 89 | 2.0 | 6.0 | 0.00 | 0.00 | 0.00 | 75 | 1010.6 |
| 20260506024529 | 69 | 241 | 2.0 | 11.0 | 0.00 | 0.00 | 0.00 | 74 | 1010.7 |
| 20260506024024 | 69 | 184 | 2.0 | 11.0 | 0.00 | 0.00 | 0.00 | 74 | 1010.8 |
| 20260506023518 | 69 | 193 | 2.0 | 10.0 | 0.00 | 0.00 | 0.00 | 74 | 1010.8 |
| 20260506023012 | 69 | 223 | 3.0 | 10.0 | 0.00 | 0.00 | 0.00 | 74 | 1010.8 |
| 20260506022506 | 69 | 257 | 3.0 | 8.0 | 0.00 | 0.00 | 0.00 | 74 | 1010.9 |
| 20260506022000 | 69 | 145 | 3.0 | 8.0 | 0.00 | 0.00 | 0.00 | 74 | 1010.9 |
| 20260506021454 | 69 | 223 | 3.0 | 11.0 | 0.00 | 0.00 | 0.00 | 74 | 1010.8 |
| 20260506020948 | 69 | 255 | 2.0 | 11.0 | 0.00 | 0.00 | 0.00 | 73 | 1010.8 |
| 20260506020442 | 69 | 286 | 3.0 | 9.0 | 0.00 | 0.00 | 0.00 | 73 | 1010.8 |
| 20260506015935 | 69 | 269 | 3.0 | 9.0 | 0.00 | 0.00 | 0.00 | 73 | 1010.7 |
| 20260506015429 | 69 | 206 | 3.0 | 9.0 | 0.00 | 0.00 | 0.00 | 73 | 1010.6 |
| 20260506014923 | 70 | 231 | 2.0 | 9.0 | 0.00 | 0.00 | 0.00 | 73 | 1010.6 |
| 20260506014418 | 70 | 283 | 2.0 | 6.0 | 0.00 | 0.00 | 0.00 | 73 | 1010.5 |
| 20260506013912 | 70 | 296 | 2.0 | 9.0 | 0.00 | 0.00 | 0.00 | 72 | 1010.4 |
| 20260506013410 | 70 | 223 | 2.0 | 9.0 | 0.00 | 0.00 | 0.00 | 72 | 1010.4 |
| 20260506012910 | 70 | 262 | 2.0 | 8.0 | 0.00 | 0.00 | 0.00 | 72 | 1010.4 |
| 20260506012409 | 71 | 269 | 2.0 | 8.0 | 0.00 | 0.00 | 0.00 | 72 | 1010.3 |
| 20260506011908 | 71 | 317 | 3.0 | 8.0 | 0.00 | 0.00 | 0.00 | 71 | 1010.2 |
| 20260506011406 | 71 | 28 | 3.0 | 8.0 | 0.00 | 0.00 | 0.00 | 71 | 1010.2 |
| 20260506010906 | 71 | 178 | 3.0 | 13.0 | 0.00 | 0.00 | 0.00 | 71 | 1010.0 |
| 20260506010406 | 72 | 257 | 3.0 | 13.0 | 0.00 | 0.00 | 0.00 | 70 | 1010.0 |
| 20260506005906 | 72 | 276 | 3.0 | 14.0 | 0.00 | 0.00 | 0.00 | 70 | 1010.0 |
| 20260506005630 | 72 | 130 | 3.0 | 14.0 | 0.00 | 0.00 | 0.00 | 70 | 1009.9 |
| 20260506005126 | 72 | 271 | 2.0 | 13.0 | 0.00 | 0.00 | 0.00 | 70 | 1009.8 |
| 20260506004404 | 72 | 206 | 2.0 | 9.0 | 0.00 | 0.00 | 0.00 | 69 | 1009.8 |
| 20260506003904 | 73 | 314 | 3.0 | 8.0 | 0.00 | 0.00 | 0.00 | 69 | 1009.7 |
| 20260506003623 | 73 | 206 | 3.0 | 11.0 | 0.00 | 0.00 | 0.00 | 69 | 1009.7 |
| 20260506002902 | 73 | 178 | 3.0 | 11.0 | 0.00 | 0.00 | 0.00 | 69 | 1009.7 |
| 20260506002359 | 73 | 278 | 4.0 | 17.0 | 0.00 | 0.00 | 0.00 | 68 | 1009.6 |
| 20260506001858 | 73 | 314 | 4.0 | 17.0 | 0.00 | 0.00 | 0.00 | 68 | 1009.6 |
| 20260506001358 | 74 | 227 | 3.0 | 12.0 | 0.00 | 0.00 | 0.00 | 67 | 1009.5 |
| 20260506000854 | 74 | 199 | 3.0 | 12.0 | 0.00 | 0.00 | 0.00 | 66 | 1009.4 |
| 20260506000354 | 74 | 149 | 2.0 | 6.0 | 0.00 | 0.00 | 0.00 | 66 | 1009.4 |
| 20260505235853 | 74 | 140 | 2.0 | 8.0 | 0.00 | 0.00 | 0.00 | 65 | 1009.4 |
| 20260505235354 | 74 | 283 | 2.0 | 8.0 | 0.00 | 0.00 | 0.00 | 65 | 1009.3 |
| 20260505234854 | 74 | 324 | 3.0 | 11.0 | 0.00 | 0.00 | 0.00 | 64 | 1009.2 |
| 20260505234354 | 75 | 218 | 3.0 | 11.0 | 0.00 | 0.00 | 0.00 | 64 | 1009.1 |
| 20260505233853 | 75 | 303 | 2.0 | 10.0 | 0.00 | 0.00 | 0.00 | 64 | 1009.1 |
| 20260505233354 | 75 | 331 | 2.0 | 8.0 | 0.00 | 0.00 | 0.00 | 64 | 1009.1 |
| 20260505232854 | 75 | 234 | 2.0 | 8.0 | 0.00 | 0.00 | 0.00 | 64 | 1009.1 |
| 20260505232348 | 76 | 53 | 2.0 | 12.0 | 0.00 | 0.00 | 0.00 | 64 | 1009.2 |
| 20260505231841 | 76 | 28 | 2.0 | 11.0 | 0.00 | 0.00 | 0.00 | 63 | 1009.2 |
| 20260505231335 | 76 | 124 | 2.0 | 11.0 | 0.00 | 0.00 | 0.00 | 63 | 1009.2 |
| 20260505230829 | 76 | 314 | 3.0 | 8.0 | 0.00 | 0.00 | 0.00 | 62 | 1009.2 |
| 20260505230323 | 77 | 253 | 3.0 | 9.0 | 0.00 | 0.00 | 0.00 | 62 | 1009.1 |
| 20260505225817 | 77 | 178 | 3.0 | 13.0 | 0.00 | 0.00 | 0.00 | 62 | 1009.1 |
| 20260505225311 | 77 | 46 | 4.0 | 13.0 | 0.00 | 0.00 | 0.00 | 62 | 1009.1 |
| 20260505224805 | 78 | 252 | 3.0 | 10.0 | 0.00 | 0.00 | 0.00 | 62 | 1009.1 |
| 20260505224258 | 78 | 258 | 4.0 | 17.0 | 0.00 | 0.00 | 0.00 | 62 | 1009.1 |
| 20260505223755 | 78 | 53 | 5.0 | 17.0 | 0.00 | 0.00 | 0.00 | 61 | 1009.0 |
| 20260505223247 | 78 | 307 | 5.0 | 17.0 | 0.00 | 0.00 | 0.00 | 60 | 1009.1 |
| 20260505222741 | 79 | 257 | 6.0 | 16.0 | 0.00 | 0.00 | 0.00 | 60 | 1009.1 |
| 20260505222234 | 79 | 204 | 5.0 | 13.0 | 0.00 | 0.00 | 0.00 | 60 | 1009.2 |
| 20260505221728 | 79 | 89 | 5.0 | 20.0 | 0.00 | 0.00 | 0.00 | 61 | 1009.2 |
| 20260505221222 | 80 | 152 | 6.0 | 20.0 | 0.00 | 0.00 | 0.00 | 60 | 1009.3 |
| 20260505221156 | 80 | 241 | 5.0 | 19.0 | 0.00 | 0.00 | 0.00 | 59 | 1009.3 |
| 20260505220210 | 80 | 63 | 5.0 | 22.0 | 0.00 | 0.00 | 0.00 | 61 | 1009.2 |
| 20260505215706 | 79 | 102 | 5.0 | 22.0 | 0.00 | 0.00 | 0.00 | 61 | 1009.2 |
| 20260505215159 | 79 | 241 | 4.0 | 15.0 | 0.00 | 0.00 | 0.00 | 64 | 1009.1 |
| 20260505214916 | 79 | 188 | 4.0 | 14.0 | 0.00 | 0.00 | 0.00 | 62 | 1009.1 |
| 20260505214404 | 79 | 331 | 6.0 | 21.0 | 0.00 | 0.00 | 0.00 | 62 | 1009.2 |
| 20260505213901 | 79 | 117 | 6.0 | 25.0 | 0.00 | 0.00 | 0.00 | 61 | 1009.1 |
| 20260505213134 | 80 | 206 | 5.0 | 25.0 | 0.00 | 0.00 | 0.00 | 61 | 1009.1 |
| 20260505212628 | 80 | 262 | 6.0 | 21.0 | 0.00 | 0.00 | 0.00 | 62 | 1008.9 |
| 20260505212340 | 80 | 231 | 6.0 | 23.0 | 0.00 | 0.00 | 0.00 | 61 | 1009.0 |